SAS53C ESSA-EKCH

Flight info

Callsign SAS53C
Flight time 0h 56m
Altitude 36000
Route PETEV N872 ELPAX DCT TOKSI N872 ERNOV
Aircraft A320/M-SDE3FGHIRWY/LB1

Departure

Time 2026-05-04 11:55
Airport Stockholm-Arlanda Airport (ESSA)

Arrival

Time 2026-05-04 12:52
Airport Copenhagen Kastrup Airport (EKCH)
Time Latitude Longitude Altitude Speed Heading
2026-05-04 11:52 59.65795 17.92351 104 ft 0 kts 287°
2026-05-04 11:52 59.65798 17.92318 105 ft 12 kts 275°
2026-05-04 11:52 59.65732 17.92182 107 ft 13 kts 212°
2026-05-04 11:53 59.65653 17.92067 108 ft 15 kts 217°
2026-05-04 11:53 59.65520 17.91973 107 ft 42 kts 192°
2026-05-04 11:53 59.65001 17.91782 105 ft 106 kts 190°
2026-05-04 11:53 59.64108 17.91448 112 ft 153 kts 194°
2026-05-04 11:55 59.56603 17.79357 4259 ft 250 kts 229°
2026-05-04 11:55 59.55423 17.76825 5204 ft 252 kts 230°
2026-05-04 11:56 59.54235 17.74258 6185 ft 254 kts 230°
2026-05-04 11:56 59.53041 17.71656 7078 ft 256 kts 231°
2026-05-04 11:56 59.51844 17.69031 7974 ft 258 kts 231°
2026-05-04 11:56 59.50642 17.66382 8883 ft 261 kts 231°
2026-05-04 11:57 59.49349 17.63838 9775 ft 265 kts 226°
2026-05-04 11:57 59.47938 17.61332 10175 ft 284 kts 225°
2026-05-04 11:57 59.46412 17.58704 10473 ft 303 kts 224°
2026-05-04 11:57 59.44778 17.55937 11128 ft 309 kts 224°
2026-05-04 11:58 59.43140 17.53171 11877 ft 311 kts 224°
2026-05-04 11:58 59.41494 17.50387 12639 ft 313 kts 224°
2026-05-04 11:58 59.39841 17.47574 13406 ft 316 kts 224°
2026-05-04 11:58 59.38178 17.44732 14102 ft 318 kts 224°
2026-05-04 11:59 59.36505 17.41867 14761 ft 320 kts 224°
2026-05-04 11:59 59.34843 17.39024 15404 ft 323 kts 225°
2026-05-04 11:59 59.33139 17.36113 16050 ft 325 kts 224°
2026-05-04 11:59 59.31427 17.33197 16699 ft 327 kts 224°
2026-05-04 12:00 59.29700 17.30265 17339 ft 330 kts 224°
2026-05-04 12:00 59.27954 17.27308 17997 ft 333 kts 224°
2026-05-04 12:00 59.26197 17.24338 18577 ft 335 kts 224°
2026-05-04 12:00 59.24423 17.21341 19176 ft 338 kts 224°
2026-05-04 12:01 59.22638 17.18324 19771 ft 341 kts 224°
2026-05-04 12:01 59.20837 17.15283 20373 ft 343 kts 224°
2026-05-04 12:02 59.09749 16.96654 23664 ft 360 kts 224°
2026-05-04 12:03 59.07841 16.93476 24115 ft 362 kts 224°
2026-05-04 12:03 59.05920 16.90283 24558 ft 364 kts 224°
2026-05-04 12:03 59.03987 16.87076 24988 ft 367 kts 224°
2026-05-04 12:03 59.02036 16.83838 25422 ft 369 kts 224°
2026-05-04 12:04 59.00078 16.80585 25838 ft 371 kts 224°
2026-05-04 12:04 58.98107 16.77314 26261 ft 373 kts 224°
2026-05-04 12:04 58.96122 16.74029 26664 ft 376 kts 224°
2026-05-04 12:04 58.94126 16.70733 27059 ft 378 kts 223°
2026-05-04 12:05 58.92119 16.67419 27477 ft 380 kts 223°
2026-05-04 12:05 58.90092 16.64079 27843 ft 383 kts 223°
2026-05-04 12:05 58.88055 16.60732 28226 ft 385 kts 223°
2026-05-04 12:05 58.86008 16.57374 28602 ft 388 kts 223°
2026-05-04 12:06 58.83974 16.54037 28967 ft 390 kts 223°
2026-05-04 12:06 58.81899 16.50637 29327 ft 392 kts 223°
2026-05-04 12:06 58.79808 16.47221 29675 ft 395 kts 223°
2026-05-04 12:06 58.77707 16.43791 30002 ft 397 kts 223°
2026-05-04 12:07 58.75589 16.40340 30305 ft 399 kts 223°
2026-05-04 12:07 58.73464 16.36882 30656 ft 400 kts 223°
2026-05-04 12:07 58.71339 16.33434 31093 ft 399 kts 223°
2026-05-04 12:07 58.69221 16.30008 31531 ft 397 kts 223°
2026-05-04 12:08 58.67109 16.26595 31973 ft 396 kts 223°
2026-05-04 12:08 58.65684 16.24295 32269 ft 395 kts 223°
2026-05-04 12:08 58.63607 16.20946 32703 ft 394 kts 223°
2026-05-04 12:08 58.61508 16.17565 33145 ft 394 kts 223°
2026-05-04 12:09 58.59407 16.14188 33577 ft 393 kts 223°
2026-05-04 12:09 58.57311 16.10829 33960 ft 393 kts 223°
2026-05-04 12:09 58.55213 16.07471 34277 ft 393 kts 223°
2026-05-04 12:09 58.53115 16.04115 34563 ft 394 kts 223°
2026-05-04 12:10 58.51007 16.00749 34856 ft 395 kts 223°
2026-05-04 12:10 58.48897 15.97386 35138 ft 395 kts 223°
2026-05-04 12:10 58.46783 15.94017 35430 ft 396 kts 223°
2026-05-04 12:10 58.44659 15.90639 35671 ft 398 kts 223°
2026-05-04 12:11 58.40383 15.83851 35755 ft 401 kts 223°
2026-05-04 12:11 58.36081 15.77054 35757 ft 402 kts 223°
2026-05-04 12:12 58.31770 15.70267 35754 ft 402 kts 223°
2026-05-04 12:12 58.27452 15.63490 35752 ft 403 kts 223°
2026-05-04 12:14 58.10125 15.36498 35745 ft 403 kts 223°
2026-05-04 12:15 58.05803 15.29817 35750 ft 404 kts 222°
2026-05-04 12:15 58.01449 15.23111 35748 ft 404 kts 222°
2026-05-04 12:16 57.97085 15.16416 35755 ft 405 kts 222°
2026-05-04 12:16 57.92710 15.09728 35757 ft 405 kts 222°
2026-05-04 12:17 57.88329 15.03042 35765 ft 406 kts 222°
2026-05-04 12:17 57.83940 14.96378 35768 ft 406 kts 222°
2026-05-04 12:18 57.79541 14.89719 35776 ft 406 kts 222°
2026-05-04 12:18 57.75140 14.83067 35775 ft 406 kts 222°
2026-05-04 12:19 57.70738 14.76433 35783 ft 406 kts 222°
2026-05-04 12:19 57.66326 14.69814 35782 ft 407 kts 222°
2026-05-04 12:20 57.61934 14.63246 35780 ft 407 kts 222°
2026-05-04 12:20 57.57502 14.56657 35780 ft 407 kts 222°
2026-05-04 12:21 57.53074 14.50089 35789 ft 407 kts 222°
2026-05-04 12:21 57.48639 14.43512 35798 ft 408 kts 222°
2026-05-04 12:22 57.44201 14.36943 35803 ft 408 kts 222°
2026-05-04 12:22 57.39760 14.30390 35807 ft 408 kts 222°
2026-05-04 12:23 57.35302 14.23850 35473 ft 408 kts 222°
2026-05-04 12:23 57.33075 14.20594 35227 ft 407 kts 222°
2026-05-04 12:23 57.30853 14.17346 34983 ft 407 kts 222°
2026-05-04 12:24 57.28624 14.14097 34743 ft 407 kts 222°
2026-05-04 12:24 57.26434 14.10906 34506 ft 406 kts 222°
2026-05-04 12:24 57.24208 14.07673 33960 ft 407 kts 222°
2026-05-04 12:24 57.21986 14.04455 33475 ft 403 kts 222°
2026-05-04 12:25 57.19788 14.01285 33012 ft 398 kts 222°
2026-05-04 12:25 57.17624 13.98162 32552 ft 393 kts 222°
2026-05-04 12:25 57.15488 13.95072 32088 ft 388 kts 222°
2026-05-04 12:25 57.13375 13.92013 31639 ft 384 kts 222°
2026-05-04 12:26 57.11285 13.88998 31192 ft 380 kts 222°
2026-05-04 12:26 57.09212 13.86017 30751 ft 376 kts 222°
2026-05-04 12:26 57.07156 13.83067 30306 ft 373 kts 222°
2026-05-04 12:26 57.05117 13.80143 29864 ft 370 kts 222°
2026-05-04 12:27 57.03101 13.77248 29391 ft 366 kts 222°
2026-05-04 12:27 57.01109 13.74392 28970 ft 361 kts 222°
2026-05-04 12:27 56.99137 13.71568 28558 ft 357 kts 222°
2026-05-04 12:27 56.97185 13.68781 28144 ft 354 kts 222°
2026-05-04 12:28 56.95249 13.66025 27750 ft 351 kts 222°
2026-05-04 12:28 56.93328 13.63298 27359 ft 348 kts 222°
2026-05-04 12:28 56.91441 13.60618 26975 ft 346 kts 222°
2026-05-04 12:28 56.89548 13.57928 26605 ft 343 kts 222°
2026-05-04 12:29 56.87670 13.55261 26234 ft 341 kts 222°
2026-05-04 12:29 56.85805 13.52621 25867 ft 338 kts 222°
2026-05-04 12:29 56.83952 13.50006 25504 ft 335 kts 222°
2026-05-04 12:29 56.82116 13.47419 25148 ft 332 kts 222°
2026-05-04 12:30 56.80293 13.44849 24787 ft 329 kts 222°
2026-05-04 12:30 56.78490 13.42306 24436 ft 326 kts 222°
2026-05-04 12:30 56.76704 13.39791 24082 ft 323 kts 222°
2026-05-04 12:30 56.74930 13.37294 23723 ft 321 kts 222°
2026-05-04 12:31 56.73079 13.34689 23348 ft 317 kts 222°
2026-05-04 12:31 56.71334 13.32243 22938 ft 314 kts 222°
2026-05-04 12:31 56.69612 13.29836 22564 ft 311 kts 222°
2026-05-04 12:32 56.67908 13.27456 22206 ft 307 kts 222°
2026-05-04 12:32 56.64543 13.22763 21470 ft 302 kts 222°
2026-05-04 12:32 56.62880 13.20449 21106 ft 301 kts 222°
2026-05-04 12:33 56.61222 13.18142 20723 ft 299 kts 222°
2026-05-04 12:33 56.59571 13.15845 20361 ft 298 kts 222°
2026-05-04 12:33 56.57925 13.13560 19990 ft 297 kts 222°
2026-05-04 12:33 56.56287 13.11286 19619 ft 296 kts 222°
2026-05-04 12:34 56.54656 13.09023 19239 ft 295 kts 222°
2026-05-04 12:34 56.53025 13.06766 18871 ft 294 kts 222°
2026-05-04 12:34 56.51400 13.04520 18491 ft 294 kts 222°
2026-05-04 12:34 56.49775 13.02279 18109 ft 293 kts 222°
2026-05-04 12:35 56.48154 13.00047 17703 ft 292 kts 222°
2026-05-04 12:35 56.46541 12.97824 17333 ft 290 kts 222°
2026-05-04 12:35 56.44943 12.95623 16964 ft 288 kts 222°
2026-05-04 12:35 56.43371 12.93456 16600 ft 286 kts 222°
2026-05-04 12:36 56.41788 12.91276 16233 ft 285 kts 222°
2026-05-04 12:36 56.40217 12.89115 15872 ft 284 kts 222°
2026-05-04 12:36 56.38649 12.86969 15505 ft 283 kts 222°
2026-05-04 12:36 56.37081 12.84830 15139 ft 282 kts 222°
2026-05-04 12:37 56.35517 12.82699 14774 ft 281 kts 222°
2026-05-04 12:37 56.33957 12.80568 14413 ft 281 kts 222°
2026-05-04 12:37 56.32399 12.78441 14054 ft 281 kts 221°
2026-05-04 12:37 56.30845 12.76321 13686 ft 280 kts 221°
2026-05-04 12:38 56.29291 12.74209 13298 ft 279 kts 221°
2026-05-04 12:38 56.27748 12.72114 12935 ft 277 kts 221°
2026-05-04 12:38 56.26215 12.70027 12575 ft 275 kts 221°
2026-05-04 12:38 56.24691 12.67954 12214 ft 273 kts 221°
2026-05-04 12:39 56.23173 12.65895 11867 ft 272 kts 221°
2026-05-04 12:39 56.21686 12.63882 11518 ft 271 kts 221°
2026-05-04 12:39 56.20180 12.61844 11169 ft 270 kts 221°
2026-05-04 12:39 56.18691 12.59834 11032 ft 267 kts 221°
2026-05-04 12:40 56.17149 12.57900 10929 ft 273 kts 213°
2026-05-04 12:40 56.15357 12.56632 10761 ft 280 kts 200°
2026-05-04 12:40 56.13471 12.55754 10559 ft 279 kts 200°
2026-05-04 12:40 56.11612 12.54891 10361 ft 279 kts 200°
2026-05-04 12:41 56.09734 12.54018 10164 ft 279 kts 200°
2026-05-04 12:41 56.07858 12.53145 9972 ft 279 kts 200°
2026-05-04 12:41 56.05981 12.52268 9771 ft 278 kts 200°
2026-05-04 12:41 56.04111 12.51395 9563 ft 277 kts 199°
2026-05-04 12:42 56.02246 12.50528 9372 ft 276 kts 199°
2026-05-04 12:42 56.00388 12.49665 9173 ft 276 kts 199°
2026-05-04 12:42 55.98533 12.48800 8981 ft 275 kts 200°
2026-05-04 12:42 55.96683 12.47936 8791 ft 274 kts 200°
2026-05-04 12:43 55.94837 12.47074 8602 ft 274 kts 200°
2026-05-04 12:43 55.93133 12.46286 8418 ft 274 kts 198°
2026-05-04 12:43 55.91218 12.46116 8208 ft 282 kts 175°
2026-05-04 12:43 55.89377 12.47414 8003 ft 292 kts 149°
2026-05-04 12:44 55.88002 12.50102 7802 ft 300 kts 120°
2026-05-04 12:44 55.87355 12.53644 7599 ft 303 kts 103°
2026-05-04 12:44 55.86898 12.57317 7397 ft 304 kts 103°
2026-05-04 12:44 55.86451 12.60982 7145 ft 301 kts 103°
2026-05-04 12:45 55.86006 12.64596 6586 ft 298 kts 103°
2026-05-04 12:45 55.85554 12.68205 5994 ft 297 kts 104°
2026-05-04 12:45 55.85103 12.71762 5421 ft 294 kts 103°
2026-05-04 12:45 55.84701 12.75306 4855 ft 290 kts 94°
2026-05-04 12:46 55.84616 12.78877 4255 ft 287 kts 98°
2026-05-04 12:46 55.83933 12.82139 3712 ft 279 kts 127°
2026-05-04 12:46 55.82568 12.84480 3146 ft 270 kts 148°
2026-05-04 12:46 55.80907 12.85934 2542 ft 265 kts 163°
2026-05-04 12:47 55.79154 12.87006 2069 ft 266 kts 166°
2026-05-04 12:47 55.77403 12.87552 1987 ft 256 kts 182°
2026-05-04 12:47 55.75662 12.87216 1988 ft 244 kts 201°
2026-05-04 12:47 55.74328 12.85717 1997 ft 217 kts 234°
2026-05-04 12:48 55.73402 12.83726 1996 ft 203 kts 229°
2026-05-04 12:48 55.72397 12.82093 1997 ft 190 kts 225°
2026-05-04 12:48 55.71416 12.80566 2013 ft 183 kts 226°
2026-05-04 12:48 55.70509 12.79158 2019 ft 164 kts 226°
2026-05-04 12:49 55.69696 12.77896 1907 ft 143 kts 226°
2026-05-04 12:49 55.68968 12.76760 1754 ft 137 kts 228°
2026-05-04 12:49 55.68270 12.75670 1580 ft 132 kts 227°
2026-05-04 12:49 55.67586 12.74604 1405 ft 130 kts 227°
2026-05-04 12:50 55.66901 12.73536 1231 ft 131 kts 228°
2026-05-04 12:50 55.66217 12.72473 1053 ft 131 kts 227°
2026-05-04 12:50 55.65536 12.71414 864 ft 130 kts 227°
2026-05-04 12:50 55.64849 12.70345 678 ft 132 kts 227°
2026-05-04 12:51 55.64171 12.69292 495 ft 130 kts 226°
2026-05-04 12:51 55.63487 12.68231 317 ft 131 kts 228°
2026-05-04 12:51 55.62795 12.67157 140 ft 133 kts 226°
2026-05-04 12:51 55.62113 12.66096 24 ft 121 kts 222°
2026-05-04 12:52 55.61695 12.65437 23 ft 36 kts 219°
2026-05-04 12:52 55.61601 12.65161 23 ft 27 kts 275°
2026-05-04 12:52 55.61642 12.64960 24 ft 27 kts 309°
2026-05-04 12:52 55.61794 12.64779 24 ft 27 kts 354°
2026-05-04 12:53 55.61957 12.64886 26 ft 23 kts 30°
2026-05-04 12:53 55.62093 12.65044 26 ft 21 kts 33°
2026-05-04 12:53 55.62209 12.65171 26 ft 19 kts 30°
2026-05-04 12:53 55.62297 12.65281 25 ft 16 kts 70°
2026-05-04 12:54 55.62398 12.65328 25 ft 17 kts 357°
2026-05-04 12:54 55.62527 12.65319 25 ft 20 kts 357°
2026-05-04 12:54 55.62672 12.65293 25 ft 19 kts 354°
2026-05-04 12:54 55.62723 12.65324 24 ft 7 kts 14°
2026-05-04 12:55 55.62724 12.65325 24 ft 0 kts 14°